Hawarden, United Kingdom

6:36 PM BST on August 20, 2017 (GMT +0100)
Hawarden

Weather History for EGNR - December, 2012

Change the Weather History Date:

Tuesday, December 18, 2012

  Actual Average (EGGP) Record (EGGP)
Temperature  
Mean Temperature 39 °F -  
Max Temperature 45 °F 44 °F 55 °F (2008)
Min Temperature 33 °F 35 °F 21 °F (2010)
Degree Days  
Heating Degree Days 26    
Moisture  
Dew Point 40 °F    
Average Humidity 98    
Maximum Humidity 100    
Minimum Humidity 93    
Precipitation  
Precipitation 0.00 in - - ()
Sea Level Pressure  
Sea Level Pressure 30.03 in    
Wind  
Wind Speed 4 mph ()    
Max Wind Speed 8 mph    
Max Gust Speed -    
Visibility 4.5 miles    
Events Fog    
Averages and records for this station are not official NWS values.
T = Trace of Precipitation, MM = Missing Value Source: Averaged Metar Reports

Daily Weather History Graph

Daily Weather History Graph

Search for Another Location

Airport or City:

Trip Planner

Search our weather history database for the weather conditions in past years. The results will help you decide how hot, cold, wet, or windy it might be!

Date:

Astronomy

Dec. 18, 2012 Rise Set
Actual Time 8:22 AM GMT 3:54 PM GMT
Civil Twilight 7:39 AM GMT 4:37 PM GMT
Nautical Twilight 6:54 AM GMT 5:22 PM GMT
Astronomical Twilight 6:12 AM GMT 6:05 PM GMT
Moon 11:11 AM GMT (12/18) 10:54 PM GMT (12/18)
Length of Visible Light 8h 57m
Length of Day
7h 32m
Waxing Crescent, 32% of the Moon is Illuminated
Dec 18
Waxing Crescent
Dec 20
First Quarter
Dec 28
Full
Jan 5
Last Quarter
Jan 11
New

Hourly Weather History & Observations

Time (GMT) Temp. Windchill Dew Point Humidity Pressure Visibility Wind Dir Wind Speed Gust Speed Precip Events Conditions
2:50 AM 45 °F - 45 °F 100% 29.83 in 22 mi NW 8.1 mph - -   Scattered Clouds
5:50 AM 44 °F - 44 °F 99% 29.91 in 9 mi NW 6.9 mph - -  
6:20 AM 42.8 °F 38.6 °F 41.0 °F 93% 29.92 in 6.2 mi NW 6.9 mph - N/A   Mostly Cloudy
6:50 AM 42.8 °F 38.6 °F 42.8 °F 100% 29.92 in 6.2 mi NNW 6.9 mph - N/A   Mostly Cloudy
7:20 AM 41.0 °F 37.1 °F 41.0 °F 100% 29.95 in 6.2 mi NW 5.8 mph - N/A   Scattered Clouds
7:50 AM 41.0 °F 36.4 °F 41.0 °F 100% 29.95 in 6.2 mi NW 6.9 mph - N/A   Partly Cloudy
8:50 AM 40 °F - 40 °F 98% 29.98 in 3 mi NW 2.3 mph - -   Mist
8:50 AM 41.0 °F - 41.0 °F 100% 29.98 in 6.2 mi Variable 2.3 mph - N/A   Partly Cloudy
9:20 AM 41.0 °F 39.0 °F 39.2 °F 93% 29.98 in 6.2 mi Variable 3.5 mph - N/A   Scattered Clouds
9:50 AM 41.0 °F 36.4 °F 41.0 °F 100% 30.01 in 6.2 mi NW 6.9 mph - N/A   Scattered Clouds
10:20 AM 42.8 °F 41.1 °F 41.0 °F 93% 30.01 in 6.2 mi Variable 3.5 mph - N/A   Scattered Clouds
10:50 AM 41.0 °F - 41.0 °F 100% 30.01 in 6.2 mi Variable 1.2 mph - N/A   Scattered Clouds
11:20 AM 42.8 °F - 42.8 °F 100% 30.04 in 5.6 mi Calm Calm - N/A   Mostly Cloudy
11:50 AM 45 °F - 45 °F 100% 30.04 in 6 mi NW 5.8 mph - -   Mostly Cloudy
11:50 AM 44.6 °F 41.4 °F 42.8 °F 93% 30.04 in 6.2 mi NNW 5.8 mph - N/A   Mostly Cloudy
12:20 PM 44.6 °F 41.4 °F 42.8 °F 93% 30.04 in 6.2 mi NNW 5.8 mph - N/A   Mostly Cloudy
12:50 PM 46.4 °F 45.2 °F 44.6 °F 93% 30.04 in 6.2 mi NNW 3.5 mph - N/A   Mostly Cloudy
1:50 PM 46.4 °F 45.2 °F 44.6 °F 93% 30.04 in 6.2 mi Variable 3.5 mph - N/A   Mostly Cloudy
2:20 PM 44.6 °F 43.1 °F 42.8 °F 93% 30.04 in 6.2 mi Variable 3.5 mph - N/A   Scattered Clouds
2:50 PM 44 °F - 44 °F 99% 30.06 in 6 mi North 2.3 mph - -   Mist
2:50 PM 44.6 °F - 42.8 °F 93% 30.06 in 6.2 mi Variable 1.2 mph - N/A   Partly Cloudy
3:20 PM 42.8 °F - 42.8 °F 100% 30.06 in 6.2 mi Calm Calm - N/A Fog Shallow Fog
3:50 PM 41.0 °F - 41.0 °F 100% 30.06 in 6.2 mi Calm Calm - N/A Fog Shallow Fog
4:20 PM 37.4 °F - 37.4 °F 100% 30.06 in 6.2 mi Calm Calm - N/A Fog Shallow Fog
4:50 PM 37.4 °F - 37.4 °F 100% 30.09 in 6.2 mi Calm Calm - N/A   Partly Cloudy
5:20 PM 37.4 °F - 37.4 °F 100% 30.06 in 1.9 mi Calm Calm - N/A   Mist
5:50 PM 34 °F - 34 °F 98% 30.09 in 2 mi SW 3.5 mph - -   Mist
5:50 PM 33.8 °F - 33.8 °F 100% 30.09 in 1.9 mi Variable 2.3 mph - N/A Fog Mist
6:20 PM 33.8 °F - 33.8 °F 100% 30.09 in 1.9 mi Variable 2.3 mph - N/A Fog Fog
6:50 PM 33.8 °F 30.8 °F 33.8 °F 100% 30.09 in 1.9 mi Variable 3.5 mph - N/A Fog Fog
7:20 PM 33.8 °F - 33.8 °F 100% 30.09 in 0.0 mi Variable 2.3 mph - N/A Fog Fog
7:50 PM 33.8 °F 29.6 °F 33.8 °F 100% 30.09 in 0.1 mi South 4.6 mph - N/A Fog Fog
8:20 PM 35.6 °F 32.8 °F 35.6 °F 100% 30.09 in 0.1 mi Variable 3.5 mph - N/A Fog Fog
8:50 PM 34 °F - 34 °F 99% 30.10 in 0 mi SSE 3.5 mph - - Fog Fog
8:50 PM 35.6 °F 31.7 °F 35.6 °F 100% 30.09 in 0.0 mi SSE 4.6 mph - N/A Fog Fog
11:50 PM 36 °F - 36 °F 99% 30.08 in 2 mi SE 3.5 mph - - Fog Fog